カタログに戻る

STARLINK-35555

運用中通信VLEO
NORAD 66425·PAYLOAD·🇺🇸 United States

打ち上げ Nov 11, 2025 から Cape Canaveral Space Force Station

Loading…

次のパス (今後24時間)

TLE

最新Source: CelesTrak SupGP

元期: Sep 14, 2026, 21:36 UTC

1 66425C 25259D   26257.90048611  .00008830  00000+0  32003-3 0  2573
2 66425  43.0029 285.8394 0001608 273.6546 244.8452 15.27552346    10

AllMySatでSTARLINK-35555をリアルタイム追跡

Download on the App Store